カタログに戻る

STARLINK-34811

運用中通信SSO
NORAD 65396·PAYLOAD·🇺🇸 United States

打ち上げ Aug 30, 2025 から Vandenberg Space Force Base

Loading…

次のパス (今後24時間)

TLE

最新Source: CelesTrak SupGP

元期: Sep 14, 2026, 21:25 UTC

1 65396C 25191T   26257.89284722  .00018011  00000+0  55920-3 0  2572
2 65396  97.2847 123.9330 0001766  95.7758 315.4017 15.33423587    13

AllMySatでSTARLINK-34811をリアルタイム追跡

Download on the App Store